WAT4585 KFXE-TJAB

Flight info

Callsign WAT4585
Flight time N/A
Altitude 17000
Route GABOW2 RAJAY A555 GTK R763 RNTRY L452 HARBG DCT BQN
Aircraft B58T/L-SDFGRY/C

Departure

Time 2026-04-27 15:09
Airport Fort Lauderdale Executive Airport (KFXE)

Arrival

Time N/A
Airport Antonio Nery Juarbe Pol Airport (TJAB)
Time Latitude Longitude Altitude Speed Heading
2026-04-27 14:50 26.19061 -80.17004 18 ft 0 kts 130°
2026-04-27 15:03 26.19060 -80.17004 18 ft 0 kts 130°
2026-04-27 15:05 26.19065 -80.16978 18 ft 11 kts 34°
2026-04-27 15:05 26.19161 -80.16894 18 ft 22 kts 39°
2026-04-27 15:05 26.19276 -80.16789 20 ft 10 kts 72°
2026-04-27 15:06 26.19296 -80.16706 19 ft 19 kts 129°
2026-04-27 15:06 26.19204 -80.16582 19 ft 21 kts 127°
2026-04-27 15:06 26.19170 -80.16515 21 ft 0 kts 79°
2026-04-27 15:08 26.19187 -80.16482 21 ft 14 kts 47°
2026-04-27 15:08 26.19239 -80.16485 20 ft 0 kts 309°
2026-04-27 15:08 26.19339 -80.16624 19 ft 62 kts 308°
2026-04-27 15:09 26.19735 -80.17170 68 ft 109 kts 310°
2026-04-27 15:09 26.20221 -80.17844 414 ft 112 kts 311°
2026-04-27 15:09 26.20727 -80.18544 737 ft 117 kts 311°
2026-04-27 15:09 26.21218 -80.19261 1125 ft 117 kts 310°
2026-04-27 15:10 26.21686 -80.20017 1499 ft 119 kts 306°
2026-04-27 15:10 26.22092 -80.20830 1898 ft 121 kts 301°
2026-04-27 15:10 26.22514 -80.21646 2188 ft 122 kts 315°
2026-04-27 15:10 26.23202 -80.22196 2518 ft 125 kts 345°
2026-04-27 15:11 26.24077 -80.22192 2846 ft 132 kts 25°
2026-04-27 15:11 26.24622 -80.21374 3208 ft 144 kts 74°
2026-04-27 15:11 26.24561 -80.20222 3545 ft 154 kts 102°
2026-04-27 15:11 26.24402 -80.19035 3882 ft 157 kts 88°
2026-04-27 15:12 26.24358 -80.17796 4217 ft 162 kts 88°
2026-04-27 15:12 26.24321 -80.16533 4554 ft 165 kts 89°
2026-04-27 15:12 26.24298 -80.15675 4776 ft 166 kts 88°
2026-04-27 15:12 26.24265 -80.14373 5089 ft 169 kts 88°
2026-04-27 15:13 26.24235 -80.13068 5412 ft 168 kts 87°
2026-04-27 15:13 26.24204 -80.11756 5731 ft 170 kts 90°
2026-04-27 15:13 26.24173 -80.10449 6054 ft 168 kts 89°
2026-04-27 15:13 26.24143 -80.09162 6374 ft 165 kts 89°
2026-04-27 15:14 26.24106 -80.07897 6674 ft 162 kts 89°
2026-04-27 15:14 26.24075 -80.06665 6966 ft 161 kts 86°
2026-04-27 15:14 26.24048 -80.05412 7198 ft 163 kts 87°
2026-04-27 15:14 26.24015 -80.04151 7440 ft 164 kts 88°
2026-04-27 15:15 26.23982 -80.02872 7682 ft 166 kts 89°
2026-04-27 15:15 26.23951 -80.01590 7927 ft 166 kts 89°
2026-04-27 15:15 26.23918 -80.00297 8171 ft 167 kts 89°
2026-04-27 15:15 26.23886 -79.98977 8426 ft 168 kts 87°
2026-04-27 15:16 26.23855 -79.97690 8675 ft 169 kts 86°
2026-04-27 15:16 26.23825 -79.96375 8925 ft 170 kts 88°
2026-04-27 15:16 26.23788 -79.95059 9178 ft 171 kts 88°
2026-04-27 15:16 26.23754 -79.93735 9432 ft 171 kts 87°
2026-04-27 15:17 26.23721 -79.92412 9690 ft 171 kts 87°
2026-04-27 15:17 26.23686 -79.91086 9944 ft 171 kts 89°
2026-04-27 15:17 26.23652 -79.89755 10178 ft 172 kts 89°
2026-04-27 15:17 26.23618 -79.88418 10407 ft 173 kts 89°
2026-04-27 15:18 26.23583 -79.87074 10638 ft 175 kts 88°
2026-04-27 15:18 26.23549 -79.85713 10873 ft 176 kts 89°
2026-04-27 15:18 26.23512 -79.84350 11107 ft 177 kts 88°
2026-04-27 15:18 26.23476 -79.82973 11347 ft 179 kts 90°
2026-04-27 15:19 26.23439 -79.81586 11584 ft 180 kts 90°
2026-04-27 15:19 26.23401 -79.80185 11827 ft 181 kts 89°
2026-04-27 15:19 26.23365 -79.78771 12073 ft 184 kts 90°
2026-04-27 15:19 26.23328 -79.77341 12322 ft 185 kts 90°
2026-04-27 15:20 26.23289 -79.75904 12574 ft 186 kts 90°
2026-04-27 15:20 26.23250 -79.74457 12824 ft 188 kts 90°
2026-04-27 15:20 26.23211 -79.72999 13078 ft 189 kts 90°
2026-04-27 15:20 26.23171 -79.71531 13335 ft 190 kts 90°
2026-04-27 15:21 26.23131 -79.70051 13593 ft 192 kts 90°
2026-04-27 15:21 26.23091 -79.68564 13848 ft 193 kts 90°
2026-04-27 15:21 26.23050 -79.67068 14080 ft 194 kts 90°
2026-04-27 15:21 26.23009 -79.65566 14311 ft 195 kts 90°
2026-04-27 15:22 26.22967 -79.64054 14540 ft 196 kts 90°
2026-04-27 15:22 26.22925 -79.62535 14772 ft 196 kts 90°
2026-04-27 15:22 26.22761 -79.61029 15008 ft 198 kts 108°
2026-04-27 15:22 26.22191 -79.59627 15250 ft 199 kts 115°
2026-04-27 15:23 26.21611 -79.58226 15490 ft 200 kts 114°
2026-04-27 15:23 26.21039 -79.56838 15729 ft 200 kts 114°
2026-04-27 15:23 26.20444 -79.55409 15975 ft 201 kts 114°
2026-04-27 15:23 26.19855 -79.53995 16221 ft 202 kts 114°
2026-04-27 15:24 26.19267 -79.52584 16469 ft 202 kts 113°
2026-04-27 15:24 26.18670 -79.51152 16722 ft 203 kts 113°
2026-04-27 15:24 26.18076 -79.49725 16970 ft 204 kts 113°
2026-04-27 15:24 26.17464 -79.48255 17009 ft 216 kts 113°
2026-04-27 15:25 26.16824 -79.46722 17022 ft 226 kts 113°
2026-04-27 15:25 26.16151 -79.45110 17023 ft 232 kts 113°
2026-04-27 15:25 26.15471 -79.43482 17019 ft 233 kts 113°
2026-04-27 15:25 26.14776 -79.41817 17017 ft 235 kts 113°
2026-04-27 15:26 26.14087 -79.40168 17021 ft 236 kts 113°
2026-04-27 15:26 26.13303 -79.38567 17024 ft 236 kts 120°
2026-04-27 15:26 26.12481 -79.37008 17023 ft 237 kts 119°
2026-04-27 15:26 26.11654 -79.35417 17022 ft 237 kts 119°
2026-04-27 15:27 26.10828 -79.33828 17023 ft 238 kts 119°
2026-04-27 15:27 26.09997 -79.32234 17025 ft 238 kts 119°
2026-04-27 15:27 26.09166 -79.30641 17026 ft 238 kts 119°
2026-04-27 15:27 26.08333 -79.29047 17026 ft 238 kts 119°
2026-04-27 15:28 26.07502 -79.27455 17029 ft 238 kts 119°
2026-04-27 15:28 26.06669 -79.25860 17027 ft 238 kts 119°
2026-04-27 15:28 26.05835 -79.24263 17028 ft 238 kts 119°
2026-04-27 15:28 26.05002 -79.22670 17028 ft 238 kts 119°
2026-04-27 15:29 26.04170 -79.21078 17031 ft 238 kts 119°
2026-04-27 15:29 26.03336 -79.19484 17031 ft 238 kts 119°
2026-04-27 15:29 26.02503 -79.17891 17031 ft 238 kts 119°
2026-04-27 15:29 26.01667 -79.16295 17031 ft 238 kts 119°
2026-04-27 15:30 26.00834 -79.14703 17030 ft 238 kts 119°
2026-04-27 15:30 25.99999 -79.13109 17033 ft 239 kts 119°
2026-04-27 15:30 25.99163 -79.11513 17033 ft 239 kts 119°
2026-04-27 15:30 25.98250 -79.09974 17032 ft 239 kts 124°
2026-04-27 15:31 25.97300 -79.08470 17034 ft 239 kts 124°
2026-04-27 15:31 25.96354 -79.06953 17034 ft 239 kts 124°
2026-04-27 15:31 25.95405 -79.05434 17033 ft 239 kts 124°
2026-04-27 15:31 25.94457 -79.03922 17031 ft 239 kts 124°
2026-04-27 15:32 25.93504 -79.02404 17029 ft 239 kts 124°
2026-04-27 15:32 25.92555 -79.00890 17029 ft 239 kts 124°
2026-04-27 15:32 25.91607 -78.99380 17029 ft 239 kts 124°
2026-04-27 15:32 25.90653 -78.97860 17029 ft 239 kts 124°
2026-04-27 15:33 25.89705 -78.96349 17029 ft 239 kts 124°
2026-04-27 15:33 25.88752 -78.94832 17029 ft 239 kts 124°
2026-04-27 15:33 25.87800 -78.93317 17029 ft 239 kts 124°
2026-04-27 15:33 25.86848 -78.91801 17029 ft 239 kts 124°
2026-04-27 15:34 25.85898 -78.90291 17032 ft 239 kts 124°
2026-04-27 15:34 25.84947 -78.88778 17032 ft 239 kts 124°
2026-04-27 15:34 25.83995 -78.87265 17032 ft 239 kts 124°
2026-04-27 15:34 25.83042 -78.85749 17032 ft 239 kts 124°
2026-04-27 15:35 25.82088 -78.84234 17022 ft 239 kts 124°
2026-04-27 15:35 25.81136 -78.82723 17020 ft 239 kts 124°
2026-04-27 15:35 25.80184 -78.81210 17020 ft 239 kts 124°
2026-04-27 15:35 25.79230 -78.79697 17020 ft 239 kts 124°
2026-04-27 15:36 25.78278 -78.78186 17022 ft 239 kts 124°
2026-04-27 15:36 25.77324 -78.76673 17022 ft 239 kts 124°
2026-04-27 15:36 25.76371 -78.75162 17022 ft 239 kts 124°
2026-04-27 15:36 25.75415 -78.73648 17022 ft 239 kts 124°
2026-04-27 15:37 25.74461 -78.72136 17020 ft 239 kts 124°
2026-04-27 15:37 25.73514 -78.70625 17020 ft 239 kts 124°
2026-04-27 15:37 25.72583 -78.69092 17020 ft 239 kts 123°
2026-04-27 15:37 25.71651 -78.67564 17029 ft 239 kts 124°
2026-04-27 15:38 25.70720 -78.66041 17026 ft 239 kts 124°
2026-04-27 15:38 25.69785 -78.64516 17026 ft 239 kts 124°
2026-04-27 15:38 25.68854 -78.62999 17026 ft 238 kts 124°
2026-04-27 15:38 25.67922 -78.61479 17026 ft 238 kts 124°
2026-04-27 15:39 25.66987 -78.59956 17025 ft 238 kts 124°
2026-04-27 15:39 25.66057 -78.58439 17025 ft 238 kts 124°
2026-04-27 15:39 25.65123 -78.56919 17025 ft 238 kts 124°
2026-04-27 15:39 25.64191 -78.55399 17025 ft 238 kts 124°
2026-04-27 15:40 25.63258 -78.53881 17022 ft 238 kts 124°
2026-04-27 15:40 25.62327 -78.52366 17022 ft 238 kts 124°
2026-04-27 15:40 25.61394 -78.50848 17022 ft 238 kts 124°
2026-04-27 15:40 25.60461 -78.49331 17022 ft 238 kts 124°
2026-04-27 15:41 25.59531 -78.47818 17023 ft 238 kts 124°
2026-04-27 15:41 25.58596 -78.46299 17023 ft 238 kts 124°
2026-04-27 15:41 25.57628 -78.44814 17023 ft 238 kts 133°
2026-04-27 15:41 25.56392 -78.43606 17022 ft 237 kts 141°
2026-04-27 15:42 25.55137 -78.42416 17026 ft 237 kts 140°
2026-04-27 15:42 25.53894 -78.41221 17026 ft 237 kts 140°
2026-04-27 15:42 25.52643 -78.40028 17027 ft 238 kts 140°
2026-04-27 15:42 25.51388 -78.38834 17027 ft 238 kts 140°
2026-04-27 15:43 25.50133 -78.37641 17028 ft 238 kts 140°
2026-04-27 15:43 25.48879 -78.36448 17028 ft 238 kts 140°
2026-04-27 15:43 25.47630 -78.35259 17019 ft 238 kts 140°
2026-04-27 15:43 25.46374 -78.34065 17019 ft 238 kts 140°
2026-04-27 15:44 25.45119 -78.32872 17014 ft 237 kts 140°
2026-04-27 15:44 25.43867 -78.31681 17014 ft 237 kts 140°
2026-04-27 15:44 25.42612 -78.30490 17014 ft 237 kts 140°
2026-04-27 15:44 25.41358 -78.29298 17014 ft 238 kts 140°
2026-04-27 15:45 25.40107 -78.28111 17019 ft 238 kts 140°
2026-04-27 15:45 25.38856 -78.26923 17019 ft 237 kts 140°
2026-04-27 15:45 25.37602 -78.25732 17019 ft 238 kts 140°
2026-04-27 15:45 25.36345 -78.24540 17017 ft 238 kts 140°
2026-04-27 15:46 25.35090 -78.23349 17016 ft 238 kts 140°
2026-04-27 15:46 25.33837 -78.22161 17016 ft 238 kts 140°
2026-04-27 15:46 25.32585 -78.20974 17016 ft 238 kts 140°
2026-04-27 15:46 25.31332 -78.19786 17016 ft 238 kts 140°
2026-04-27 15:47 25.30172 -78.18483 17014 ft 238 kts 124°
2026-04-27 15:47 25.29432 -78.16864 17016 ft 237 kts 110°
2026-04-27 15:47 25.28816 -78.15173 17018 ft 237 kts 111°
2026-04-27 15:47 25.28192 -78.13488 17022 ft 237 kts 111°
2026-04-27 15:48 25.27567 -78.11799 17020 ft 238 kts 111°
2026-04-27 15:48 25.26945 -78.10114 17021 ft 237 kts 111°
2026-04-27 15:48 25.26319 -78.08420 17010 ft 238 kts 111°
2026-04-27 15:49 25.25068 -78.05039 17010 ft 238 kts 111°
2026-04-27 15:49 25.24445 -78.03356 17014 ft 238 kts 111°
2026-04-27 15:49 25.23815 -78.01656 17010 ft 238 kts 111°
2026-04-27 15:49 25.23190 -77.99968 17008 ft 237 kts 111°
2026-04-27 15:50 25.22565 -77.98282 17010 ft 237 kts 111°
2026-04-27 15:50 25.21940 -77.96595 17007 ft 237 kts 111°
2026-04-27 15:50 25.21313 -77.94905 17013 ft 238 kts 111°
2026-04-27 15:50 25.20687 -77.93217 17007 ft 238 kts 111°
2026-04-27 15:51 25.20060 -77.91531 17008 ft 238 kts 111°
2026-04-27 15:51 25.19434 -77.89842 17005 ft 237 kts 111°
2026-04-27 15:51 25.18807 -77.88155 17008 ft 237 kts 111°
2026-04-27 15:51 25.18180 -77.86468 17009 ft 237 kts 111°
2026-04-27 15:52 25.17554 -77.84784 17008 ft 237 kts 111°
2026-04-27 15:52 25.16927 -77.83099 17010 ft 237 kts 111°
2026-04-27 15:52 25.16301 -77.81418 17007 ft 237 kts 111°
2026-04-27 15:52 25.15673 -77.79730 17007 ft 237 kts 111°
2026-04-27 15:53 25.15046 -77.78046 17015 ft 237 kts 111°
2026-04-27 15:53 25.14623 -77.76912 17016 ft 237 kts 111°
2026-04-27 15:53 25.13789 -77.74674 17019 ft 237 kts 112°
2026-04-27 15:53 25.13162 -77.72993 17017 ft 237 kts 112°
2026-04-27 15:54 25.12739 -77.71860 17012 ft 237 kts 112°
2026-04-27 15:54 25.12108 -77.70167 17011 ft 237 kts 112°
2026-04-27 15:54 25.11483 -77.68492 17014 ft 237 kts 112°
2026-04-27 15:54 25.10851 -77.66802 17012 ft 237 kts 112°
2026-04-27 15:55 25.10224 -77.65122 17017 ft 237 kts 112°
2026-04-27 15:55 25.09593 -77.63436 17014 ft 237 kts 112°
2026-04-27 15:55 25.08965 -77.61754 17013 ft 237 kts 112°
2026-04-27 15:55 25.08336 -77.60075 17017 ft 237 kts 112°
2026-04-27 15:56 25.07706 -77.58389 17029 ft 237 kts 112°
2026-04-27 15:56 25.07075 -77.56704 17025 ft 238 kts 112°
2026-04-27 15:56 25.06444 -77.55021 17028 ft 238 kts 112°
2026-04-27 15:56 25.05813 -77.53335 17028 ft 238 kts 112°
2026-04-27 15:57 25.05181 -77.51650 17023 ft 238 kts 112°
2026-04-27 15:57 25.04549 -77.49963 17024 ft 238 kts 112°
2026-04-27 15:57 25.03917 -77.48278 17031 ft 239 kts 112°
2026-04-27 15:57 25.03281 -77.46583 17031 ft 239 kts 112°
2026-04-27 15:58 25.02638 -77.44897 17025 ft 239 kts 115°
2026-04-27 15:58 25.01729 -77.43366 17028 ft 239 kts 127°
2026-04-27 15:58 25.00754 -77.41878 17022 ft 239 kts 126°
2026-04-27 15:58 24.99795 -77.40389 17023 ft 239 kts 126°
2026-04-27 15:59 24.98844 -77.38918 17033 ft 239 kts 126°
2026-04-27 15:59 24.97870 -77.37415 17023 ft 239 kts 126°
2026-04-27 15:59 24.96901 -77.35920 17025 ft 238 kts 126°
2026-04-27 15:59 24.95937 -77.34435 17021 ft 238 kts 126°
2026-04-27 16:00 24.94975 -77.32952 17017 ft 238 kts 126°
2026-04-27 16:00 24.94011 -77.31466 17022 ft 238 kts 126°
2026-04-27 16:00 24.93068 -77.30014 17020 ft 238 kts 126°
2026-04-27 16:00 24.92098 -77.28520 17014 ft 238 kts 126°
2026-04-27 16:01 24.91119 -77.27013 17022 ft 238 kts 126°
2026-04-27 16:01 24.90158 -77.25533 17015 ft 238 kts 126°
2026-04-27 16:01 24.89191 -77.24047 17014 ft 238 kts 126°
2026-04-27 16:01 24.88231 -77.22568 17020 ft 238 kts 127°
2026-04-27 16:02 24.87267 -77.21087 17018 ft 238 kts 127°
2026-04-27 16:02 24.86303 -77.19605 17017 ft 238 kts 127°
2026-04-27 16:02 24.85339 -77.18124 17026 ft 238 kts 127°
2026-04-27 16:02 24.84372 -77.16638 17016 ft 238 kts 127°
2026-04-27 16:03 24.83408 -77.15158 17019 ft 238 kts 127°
2026-04-27 16:03 24.82444 -77.13677 17015 ft 238 kts 127°
2026-04-27 16:03 24.81478 -77.12195 17015 ft 238 kts 127°
2026-04-27 16:03 24.80513 -77.10716 17022 ft 238 kts 127°
2026-04-27 16:04 24.79547 -77.09232 17015 ft 238 kts 127°
2026-04-27 16:04 24.78581 -77.07752 17015 ft 238 kts 127°
2026-04-27 16:04 24.77616 -77.06273 17015 ft 238 kts 127°
2026-04-27 16:04 24.76649 -77.04791 17015 ft 238 kts 127°
2026-04-27 16:05 24.75682 -77.03309 17012 ft 238 kts 127°
2026-04-27 16:05 24.74727 -77.01848 17008 ft 239 kts 127°
2026-04-27 16:05 24.73747 -77.00347 17008 ft 239 kts 127°
2026-04-27 16:05 24.72781 -76.98868 17008 ft 239 kts 127°
2026-04-27 16:06 24.71810 -76.97382 17012 ft 239 kts 127°
2026-04-27 16:06 24.70840 -76.95898 17005 ft 239 kts 127°
2026-04-27 16:06 24.69870 -76.94415 17012 ft 239 kts 127°
2026-04-27 16:06 24.68901 -76.92935 17006 ft 239 kts 127°
2026-04-27 16:07 24.67932 -76.91453 17011 ft 239 kts 127°
2026-04-27 16:07 24.66958 -76.89965 17010 ft 239 kts 127°
2026-04-27 16:07 24.65989 -76.88485 17006 ft 239 kts 127°
2026-04-27 16:07 24.65029 -76.87020 17006 ft 239 kts 127°
2026-04-27 16:08 24.64047 -76.85519 17013 ft 239 kts 127°
2026-04-27 16:08 24.63076 -76.84039 17008 ft 239 kts 127°
2026-04-27 16:08 24.62104 -76.82557 17008 ft 239 kts 127°
2026-04-27 16:08 24.61131 -76.81074 17010 ft 239 kts 127°
2026-04-27 16:09 24.60172 -76.79609 17009 ft 239 kts 127°
2026-04-27 16:09 24.58211 -76.76625 17009 ft 239 kts 127°
2026-04-27 16:09 24.57238 -76.75142 17009 ft 239 kts 127°
2026-04-27 16:10 24.55294 -76.72183 17015 ft 239 kts 127°
2026-04-27 16:10 24.53347 -76.69220 17009 ft 239 kts 127°
2026-04-27 16:11 24.52372 -76.67738 17009 ft 239 kts 127°
2026-04-27 16:11 24.50426 -76.64780 17019 ft 239 kts 127°
2026-04-27 16:12 24.48477 -76.61819 17009 ft 239 kts 127°
2026-04-27 16:12 24.47502 -76.60340 17009 ft 239 kts 127°
2026-04-27 16:12 24.45555 -76.57384 17009 ft 239 kts 127°
2026-04-27 16:13 24.44576 -76.55900 17011 ft 239 kts 127°
2026-04-27 16:13 24.42627 -76.52944 17014 ft 239 kts 127°
2026-04-27 16:13 24.41654 -76.51469 17007 ft 239 kts 127°
2026-04-27 16:14 24.39702 -76.48512 17008 ft 239 kts 128°
2026-04-27 16:14 24.37751 -76.45559 17002 ft 239 kts 128°
2026-04-27 16:15 24.35797 -76.42602 16999 ft 239 kts 128°
2026-04-27 16:15 24.33844 -76.39649 16999 ft 240 kts 128°
2026-04-27 16:16 24.31885 -76.36688 17000 ft 240 kts 128°
2026-04-27 16:16 24.29927 -76.33731 17000 ft 240 kts 128°
2026-04-27 16:17 24.27971 -76.30778 17007 ft 240 kts 128°
2026-04-27 16:17 24.26009 -76.27819 17001 ft 240 kts 128°
2026-04-27 16:18 24.24056 -76.24873 17001 ft 240 kts 128°
2026-04-27 16:18 24.22091 -76.21914 17010 ft 240 kts 128°
2026-04-27 16:19 24.21107 -76.20432 17001 ft 240 kts 128°
2026-04-27 16:19 24.20129 -76.18959 17001 ft 240 kts 128°
2026-04-27 16:20 24.17188 -76.14533 17004 ft 240 kts 128°
2026-04-27 16:20 24.16204 -76.13054 17012 ft 239 kts 128°
2026-04-27 16:20 24.14244 -76.10108 17011 ft 239 kts 128°
2026-04-27 16:21 24.13264 -76.08636 17002 ft 239 kts 128°
2026-04-27 16:21 24.10327 -76.04226 17002 ft 239 kts 128°
2026-04-27 16:22 24.09348 -76.02756 17008 ft 239 kts 128°
2026-04-27 16:22 24.07388 -75.99818 17007 ft 239 kts 128°
2026-04-27 16:22 24.06410 -75.98350 17002 ft 239 kts 128°
2026-04-27 16:23 24.05432 -75.96884 17005 ft 239 kts 128°
2026-04-27 16:23 24.03472 -75.93947 17005 ft 239 kts 128°
2026-04-27 16:23 24.02493 -75.92482 17009 ft 239 kts 128°
2026-04-27 16:24 24.01512 -75.91013 17005 ft 239 kts 128°
2026-04-27 16:24 23.99553 -75.88082 17005 ft 239 kts 128°
2026-04-27 16:25 23.97593 -75.85151 17002 ft 239 kts 128°
2026-04-27 16:25 23.95633 -75.82222 17005 ft 239 kts 128°
2026-04-27 16:26 23.93684 -75.79311 17002 ft 239 kts 128°
2026-04-27 16:26 23.91710 -75.76363 17000 ft 238 kts 129°
2026-04-27 16:27 23.89754 -75.73446 17003 ft 238 kts 129°
2026-04-27 16:27 23.86822 -75.69074 17002 ft 238 kts 129°
2026-04-27 16:28 23.84869 -75.66165 17002 ft 238 kts 129°
2026-04-27 16:28 23.82916 -75.63258 17005 ft 238 kts 129°
2026-04-27 16:29 23.79985 -75.58896 16999 ft 237 kts 129°
2026-04-27 16:30 23.78028 -75.55987 16999 ft 237 kts 129°
2026-04-27 16:30 23.76071 -75.53080 17004 ft 237 kts 129°
2026-04-27 16:31 23.73150 -75.48742 17002 ft 237 kts 129°
2026-04-27 16:31 23.71199 -75.45848 17002 ft 237 kts 129°
2026-04-27 16:32 23.69238 -75.42939 17000 ft 237 kts 129°
2026-04-27 16:32 23.68257 -75.41486 16997 ft 237 kts 129°
2026-04-27 16:33 23.66621 -75.39061 16993 ft 237 kts 129°
2026-04-27 16:33 23.65642 -75.37612 16993 ft 237 kts 129°
2026-04-27 16:33 23.64667 -75.36168 16993 ft 237 kts 129°
2026-04-27 16:33 23.63693 -75.34726 16993 ft 237 kts 129°
2026-04-27 16:34 23.62713 -75.33275 16993 ft 237 kts 129°
2026-04-27 16:34 23.61736 -75.31829 16993 ft 237 kts 129°
2026-04-27 16:34 23.60756 -75.30381 17001 ft 237 kts 129°
2026-04-27 16:34 23.59778 -75.28934 16993 ft 237 kts 129°
2026-04-27 16:35 23.58801 -75.27489 17005 ft 237 kts 129°
2026-04-27 16:35 23.57853 -75.26007 16999 ft 239 kts 122°
2026-04-27 16:35 23.56272 -75.22815 17001 ft 239 kts 121°
2026-04-27 16:36 23.55476 -75.21225 17001 ft 239 kts 121°
2026-04-27 16:36 23.54680 -75.19638 16995 ft 239 kts 121°
2026-04-27 16:36 23.53886 -75.18053 16995 ft 239 kts 121°
2026-04-27 16:36 23.53092 -75.16465 16994 ft 238 kts 121°
2026-04-27 16:37 23.52300 -75.14884 16994 ft 238 kts 121°
2026-04-27 16:37 23.51505 -75.13296 16991 ft 238 kts 121°
2026-04-27 16:37 23.50710 -75.11709 16991 ft 238 kts 121°
2026-04-27 16:37 23.49916 -75.10126 16991 ft 238 kts 121°
2026-04-27 16:38 23.49121 -75.08540 16994 ft 238 kts 121°
2026-04-27 16:38 23.48328 -75.06959 16994 ft 238 kts 121°
2026-04-27 16:38 23.47532 -75.05372 16997 ft 238 kts 121°
2026-04-27 16:38 23.46740 -75.03794 16988 ft 238 kts 121°
2026-04-27 16:39 23.45945 -75.02211 16988 ft 238 kts 121°
2026-04-27 16:39 23.45154 -75.00635 16987 ft 238 kts 121°
2026-04-27 16:39 23.44358 -74.99051 16987 ft 238 kts 121°
2026-04-27 16:39 23.43565 -74.97472 16987 ft 238 kts 121°
2026-04-27 16:40 23.42774 -74.95900 16984 ft 238 kts 121°
2026-04-27 16:40 23.41981 -74.94322 16990 ft 238 kts 121°
2026-04-27 16:40 23.41185 -74.92740 16984 ft 238 kts 121°
2026-04-27 16:40 23.40402 -74.91184 16984 ft 238 kts 121°
2026-04-27 16:41 23.39596 -74.89582 16984 ft 238 kts 121°
2026-04-27 16:41 23.38813 -74.88027 16985 ft 238 kts 121°
2026-04-27 16:41 23.38008 -74.86429 16985 ft 238 kts 121°
2026-04-27 16:41 23.37215 -74.84855 16985 ft 238 kts 121°
2026-04-27 16:42 23.36422 -74.83282 16987 ft 238 kts 121°
2026-04-27 16:42 23.35627 -74.81704 16987 ft 238 kts 121°
2026-04-27 16:42 23.34833 -74.80131 16989 ft 238 kts 121°
2026-04-27 16:42 23.34027 -74.78532 16994 ft 238 kts 121°
2026-04-27 16:43 23.33240 -74.76973 16982 ft 238 kts 121°
2026-04-27 16:43 23.32432 -74.75372 16982 ft 238 kts 121°
2026-04-27 16:43 23.31649 -74.73821 16982 ft 238 kts 121°
2026-04-27 16:43 23.30852 -74.72243 16978 ft 237 kts 121°
2026-04-27 16:44 23.30046 -74.70649 16983 ft 238 kts 121°
2026-04-27 16:44 23.29260 -74.69093 16983 ft 238 kts 121°
2026-04-27 16:44 23.28455 -74.67500 16983 ft 238 kts 121°
2026-04-27 16:44 23.27666 -74.65941 16983 ft 238 kts 121°
2026-04-27 16:45 23.26862 -74.64351 16983 ft 238 kts 121°
2026-04-27 16:45 23.26072 -74.62790 16983 ft 238 kts 121°
2026-04-27 16:45 23.25262 -74.61191 16984 ft 238 kts 121°
2026-04-27 16:45 23.24463 -74.59612 16984 ft 238 kts 121°
2026-04-27 16:46 23.23669 -74.58044 16981 ft 238 kts 121°
2026-04-27 16:46 23.22867 -74.56462 16981 ft 238 kts 121°
2026-04-27 16:46 23.22067 -74.54884 16981 ft 238 kts 121°
2026-04-27 16:46 23.21270 -74.53312 16981 ft 238 kts 121°
2026-04-27 16:47 23.20472 -74.51739 16984 ft 238 kts 121°
2026-04-27 16:47 23.19671 -74.50159 16984 ft 238 kts 121°
2026-04-27 16:47 23.18872 -74.48585 16984 ft 238 kts 121°
2026-04-27 16:47 23.18073 -74.47012 16984 ft 238 kts 121°
2026-04-27 16:48 23.17272 -74.45435 16984 ft 238 kts 121°
2026-04-27 16:48 23.16476 -74.43867 16984 ft 238 kts 121°
2026-04-27 16:48 23.15673 -74.42288 16984 ft 238 kts 121°
2026-04-27 16:49 23.14074 -74.39141 16982 ft 238 kts 121°
2026-04-27 16:49 23.13271 -74.37570 16983 ft 238 kts 122°
2026-04-27 16:49 23.12462 -74.36005 16983 ft 238 kts 122°
2026-04-27 16:49 23.11652 -74.34434 16980 ft 238 kts 122°
2026-04-27 16:50 23.10845 -74.32868 16980 ft 238 kts 122°
2026-04-27 16:50 23.10038 -74.31302 16980 ft 237 kts 122°
2026-04-27 16:50 23.09233 -74.29739 16980 ft 237 kts 122°
2026-04-27 16:50 23.08425 -74.28172 16980 ft 237 kts 122°
2026-04-27 16:51 23.07620 -74.26612 16982 ft 237 kts 122°
2026-04-27 16:51 23.06813 -74.25046 16982 ft 237 kts 122°
2026-04-27 16:51 23.06016 -74.23503 16982 ft 237 kts 122°
2026-04-27 16:51 23.05201 -74.21922 16982 ft 237 kts 122°
2026-04-27 16:52 23.04393 -74.20358 16983 ft 237 kts 122°
2026-04-27 16:52 23.03587 -74.18797 16983 ft 237 kts 122°
2026-04-27 16:52 23.02791 -74.17257 16983 ft 237 kts 122°
2026-04-27 16:52 23.01985 -74.15697 16983 ft 237 kts 122°
2026-04-27 16:53 23.01178 -74.14137 16982 ft 237 kts 122°
2026-04-27 16:53 23.00371 -74.12577 16982 ft 237 kts 122°
2026-04-27 16:53 22.99563 -74.11015 16982 ft 237 kts 122°
2026-04-27 16:53 22.98756 -74.09456 16982 ft 237 kts 122°
2026-04-27 16:54 22.97949 -74.07897 16982 ft 237 kts 122°
2026-04-27 16:54 22.97142 -74.06338 16982 ft 237 kts 122°
2026-04-27 16:54 22.96333 -74.04775 16982 ft 237 kts 122°
2026-04-27 16:54 22.95525 -74.03215 16982 ft 237 kts 122°
2026-04-27 16:55 22.94717 -74.01658 16980 ft 237 kts 122°
2026-04-27 16:55 22.93909 -74.00098 16979 ft 237 kts 122°
2026-04-27 16:55 22.93102 -73.98543 16983 ft 237 kts 122°
2026-04-27 16:55 22.92296 -73.96988 16974 ft 236 kts 122°
2026-04-27 16:56 22.91492 -73.95438 16980 ft 236 kts 122°
2026-04-27 16:56 22.90686 -73.93888 16980 ft 236 kts 122°
2026-04-27 16:56 22.89879 -73.92333 16982 ft 236 kts 122°
2026-04-27 16:56 22.89076 -73.90786 16982 ft 236 kts 122°
2026-04-27 16:57 22.88269 -73.89232 16980 ft 236 kts 122°
2026-04-27 16:57 22.87464 -73.87684 16980 ft 236 kts 122°
2026-04-27 16:57 22.86658 -73.86133 16980 ft 236 kts 122°
2026-04-27 16:57 22.85851 -73.84581 16980 ft 236 kts 122°
2026-04-27 16:58 22.85044 -73.83030 16980 ft 236 kts 122°
2026-04-27 16:58 22.84239 -73.81483 16980 ft 236 kts 122°
2026-04-27 16:58 22.83431 -73.79931 16980 ft 236 kts 122°
2026-04-27 16:58 22.82625 -73.78384 16977 ft 236 kts 122°
2026-04-27 16:59 22.81816 -73.76830 16977 ft 236 kts 122°
2026-04-27 16:59 22.81010 -73.75283 16977 ft 236 kts 122°
2026-04-27 16:59 22.80203 -73.73733 16977 ft 236 kts 122°
2026-04-27 16:59 22.79397 -73.72189 16977 ft 236 kts 122°
2026-04-27 17:00 22.78044 -73.69592 16978 ft 236 kts 122°
2026-04-27 17:00 22.76973 -73.67542 16978 ft 236 kts 122°
2026-04-27 17:00 22.76166 -73.65994 16978 ft 236 kts 122°
2026-04-27 17:01 22.75359 -73.64448 16975 ft 236 kts 122°
2026-04-27 17:01 22.74551 -73.62900 16976 ft 236 kts 122°
2026-04-27 17:01 22.73743 -73.61354 16976 ft 236 kts 122°
2026-04-27 17:01 22.72937 -73.59811 16976 ft 235 kts 122°
2026-04-27 17:02 22.72131 -73.58269 16976 ft 235 kts 122°
2026-04-27 17:02 22.71323 -73.56726 16976 ft 235 kts 122°
2026-04-27 17:02 22.70516 -73.55181 16976 ft 235 kts 122°
2026-04-27 17:02 22.69709 -73.53640 16976 ft 235 kts 122°
2026-04-27 17:03 22.68901 -73.52096 16975 ft 235 kts 122°
2026-04-27 17:03 22.68097 -73.50560 16975 ft 235 kts 122°
2026-04-27 17:03 22.67288 -73.49015 16975 ft 235 kts 122°
2026-04-27 17:03 22.66481 -73.47474 16975 ft 235 kts 122°
2026-04-27 17:04 22.65673 -73.45933 16976 ft 235 kts 122°
2026-04-27 17:04 22.64866 -73.44391 16976 ft 235 kts 122°
2026-04-27 17:04 22.64059 -73.42854 16976 ft 235 kts 122°
2026-04-27 17:04 22.63250 -73.41310 16976 ft 235 kts 122°
2026-04-27 17:05 22.62442 -73.39771 16975 ft 235 kts 122°
2026-04-27 17:05 22.61635 -73.38233 16975 ft 235 kts 122°
2026-04-27 17:05 22.60826 -73.36690 16975 ft 235 kts 122°
2026-04-27 17:05 22.60290 -73.35669 16975 ft 235 kts 122°
2026-04-27 17:06 22.59209 -73.33611 16973 ft 235 kts 122°
2026-04-27 17:06 22.58399 -73.32071 16973 ft 235 kts 122°
2026-04-27 17:06 22.57591 -73.30534 16973 ft 235 kts 122°
2026-04-27 17:06 22.56783 -73.28995 16971 ft 235 kts 123°
2026-04-27 17:07 22.55973 -73.27456 16977 ft 235 kts 123°
2026-04-27 17:07 22.55166 -73.25921 16977 ft 235 kts 123°
2026-04-27 17:07 22.54357 -73.24384 16976 ft 235 kts 123°
2026-04-27 17:07 22.53549 -73.22849 16971 ft 235 kts 123°
2026-04-27 17:08 22.52743 -73.21317 16971 ft 234 kts 123°
2026-04-27 17:08 22.51937 -73.19788 16971 ft 234 kts 123°
2026-04-27 17:08 22.51129 -73.18253 16971 ft 234 kts 123°
2026-04-27 17:08 22.50324 -73.16726 16971 ft 234 kts 123°
2026-04-27 17:09 22.49519 -73.15198 16974 ft 234 kts 123°
2026-04-27 17:09 22.48711 -73.13667 16974 ft 234 kts 123°
2026-04-27 17:09 22.47905 -73.12138 16974 ft 234 kts 123°
2026-04-27 17:09 22.47098 -73.10608 16974 ft 234 kts 123°
2026-04-27 17:10 22.46288 -73.09075 16972 ft 234 kts 123°
2026-04-27 17:10 22.45484 -73.07549 16972 ft 234 kts 123°
2026-04-27 17:10 22.44674 -73.06016 16972 ft 234 kts 123°
2026-04-27 17:10 22.43866 -73.04487 16972 ft 234 kts 123°
2026-04-27 17:11 22.43057 -73.02955 16971 ft 235 kts 123°
2026-04-27 17:11 22.41700 -73.00390 16974 ft 236 kts 123°
2026-04-27 17:11 22.40885 -72.98844 16976 ft 236 kts 123°
2026-04-27 17:12 22.39268 -72.95791 16974 ft 235 kts 123°
2026-04-27 17:12 22.38459 -72.94261 16971 ft 235 kts 123°
2026-04-27 17:12 22.37647 -72.92728 16971 ft 234 kts 123°
2026-04-27 17:13 22.36828 -72.91182 16972 ft 234 kts 123°
2026-04-27 17:13 22.36019 -72.89655 16971 ft 235 kts 123°
2026-04-27 17:13 22.35206 -72.88121 16971 ft 234 kts 123°
2026-04-27 17:13 22.34397 -72.86594 16970 ft 234 kts 123°
2026-04-27 17:14 22.33588 -72.85069 16970 ft 234 kts 123°
2026-04-27 17:14 22.32789 -72.83563 16973 ft 234 kts 123°
2026-04-27 17:14 22.31978 -72.82033 16971 ft 235 kts 123°
2026-04-27 17:14 22.31168 -72.80507 16972 ft 234 kts 123°
2026-04-27 17:15 22.30357 -72.78978 16974 ft 235 kts 123°
2026-04-27 17:15 22.29545 -72.77447 16974 ft 235 kts 123°
2026-04-27 17:15 22.28721 -72.75898 16974 ft 235 kts 123°
2026-04-27 17:15 22.27919 -72.74389 16974 ft 235 kts 123°
2026-04-27 17:16 22.27108 -72.72862 16976 ft 234 kts 123°
2026-04-27 17:16 22.26299 -72.71340 16976 ft 234 kts 123°
2026-04-27 17:16 22.25487 -72.69813 16976 ft 234 kts 123°
2026-04-27 17:16 22.24676 -72.68289 16976 ft 234 kts 123°
2026-04-27 17:17 22.23871 -72.66766 16970 ft 234 kts 121°
2026-04-27 17:17 22.23132 -72.65196 16970 ft 234 kts 121°
2026-04-27 17:17 22.22373 -72.63640 16970 ft 234 kts 121°
2026-04-27 17:18 22.20868 -72.60529 16972 ft 234 kts 121°
2026-04-27 17:18 22.20118 -72.58970 16972 ft 234 kts 121°
2026-04-27 17:18 22.19367 -72.57410 16972 ft 234 kts 121°
2026-04-27 17:18 22.18616 -72.55853 16972 ft 234 kts 121°
2026-04-27 17:19 22.17866 -72.54296 16970 ft 234 kts 121°
2026-04-27 17:19 22.17114 -72.52738 16970 ft 234 kts 121°
2026-04-27 17:19 22.16363 -72.51180 16970 ft 234 kts 121°
2026-04-27 17:19 22.15611 -72.49623 16970 ft 234 kts 121°
2026-04-27 17:20 22.14860 -72.48066 16972 ft 234 kts 121°
2026-04-27 17:20 22.14107 -72.46507 16972 ft 234 kts 121°
2026-04-27 17:20 22.13356 -72.44951 16968 ft 234 kts 121°
2026-04-27 17:20 22.12563 -72.43432 16968 ft 233 kts 123°
2026-04-27 17:21 22.11774 -72.41905 16965 ft 233 kts 122°
2026-04-27 17:21 22.10991 -72.40377 16965 ft 233 kts 123°
2026-04-27 17:21 22.10199 -72.38854 16965 ft 233 kts 123°
2026-04-27 17:21 22.09404 -72.37332 16965 ft 233 kts 123°
2026-04-27 17:22 22.08611 -72.35812 16965 ft 233 kts 123°
2026-04-27 17:22 22.07818 -72.34290 16965 ft 233 kts 123°
2026-04-27 17:22 22.07024 -72.32767 16965 ft 233 kts 123°
2026-04-27 17:22 22.06236 -72.31256 17000 ft 231 kts 123°
2026-04-27 17:23 22.05449 -72.29748 17027 ft 231 kts 123°
2026-04-27 17:23 22.04660 -72.28238 17027 ft 232 kts 123°
2026-04-27 17:23 22.03870 -72.26725 17027 ft 232 kts 123°
2026-04-27 17:23 22.03077 -72.25207 17024 ft 232 kts 123°
2026-04-27 17:24 22.02286 -72.23693 17029 ft 232 kts 123°
2026-04-27 17:24 22.01494 -72.22177 17029 ft 232 kts 123°
2026-04-27 17:24 22.00699 -72.20656 17030 ft 232 kts 123°
2026-04-27 17:24 21.99904 -72.19137 17030 ft 233 kts 123°
2026-04-27 17:25 21.99110 -72.17618 17031 ft 233 kts 123°
2026-04-27 17:25 21.98317 -72.16102 17031 ft 233 kts 123°
2026-04-27 17:25 21.97521 -72.14582 17031 ft 233 kts 123°
2026-04-27 17:25 21.96727 -72.13066 17031 ft 233 kts 123°
2026-04-27 17:26 21.95930 -72.11544 17028 ft 233 kts 123°
2026-04-27 17:26 21.95137 -72.10028 17029 ft 233 kts 123°
2026-04-27 17:26 21.94340 -72.08508 17029 ft 233 kts 123°
2026-04-27 17:26 21.93732 -72.07347 17029 ft 233 kts 123°
2026-04-27 17:27 21.92934 -72.05828 17031 ft 233 kts 123°
2026-04-27 17:27 21.92139 -72.04312 17034 ft 233 kts 123°
2026-04-27 17:27 21.91337 -72.02782 17032 ft 234 kts 123°
2026-04-27 17:27 21.90539 -72.01260 17033 ft 233 kts 123°
2026-04-27 17:28 21.89740 -71.99740 17031 ft 234 kts 123°
2026-04-27 17:28 21.88940 -71.98216 17032 ft 234 kts 123°
2026-04-27 17:28 21.87341 -71.95171 17028 ft 233 kts 123°
2026-04-27 17:29 21.86532 -71.93631 17030 ft 233 kts 123°
2026-04-27 17:29 21.85744 -71.92132 17030 ft 233 kts 123°
2026-04-27 17:29 21.84936 -71.90595 17025 ft 233 kts 123°
2026-04-27 17:29 21.84139 -71.89080 17024 ft 233 kts 123°
2026-04-27 17:30 21.83341 -71.87564 17026 ft 233 kts 123°
2026-04-27 17:30 21.81757 -71.84554 17028 ft 233 kts 123°
2026-04-27 17:30 21.80957 -71.83036 17027 ft 234 kts 123°
2026-04-27 17:31 21.80158 -71.81518 17030 ft 233 kts 123°
2026-04-27 17:31 21.79360 -71.80003 17030 ft 233 kts 123°
2026-04-27 17:31 21.78563 -71.78490 17029 ft 233 kts 123°
2026-04-27 17:31 21.77765 -71.76975 17031 ft 233 kts 123°
2026-04-27 17:32 21.76966 -71.75461 17027 ft 233 kts 123°
2026-04-27 17:32 21.75366 -71.72430 17026 ft 233 kts 123°
2026-04-27 17:32 21.74569 -71.70918 17027 ft 233 kts 123°
2026-04-27 17:33 21.73771 -71.69406 17020 ft 233 kts 123°
2026-04-27 17:33 21.72970 -71.67890 17024 ft 233 kts 123°
2026-04-27 17:33 21.72172 -71.66379 17023 ft 233 kts 123°
2026-04-27 17:33 21.71373 -71.64867 17026 ft 233 kts 123°
2026-04-27 17:34 21.70574 -71.63354 17025 ft 233 kts 123°
2026-04-27 17:34 21.69775 -71.61842 17025 ft 233 kts 123°
2026-04-27 17:34 21.68973 -71.60328 17025 ft 233 kts 123°
2026-04-27 17:34 21.68177 -71.58821 17024 ft 232 kts 123°
2026-04-27 17:35 21.67379 -71.57312 17026 ft 232 kts 123°
2026-04-27 17:35 21.66582 -71.55807 17025 ft 232 kts 124°
2026-04-27 17:35 21.65784 -71.54301 17020 ft 232 kts 124°
2026-04-27 17:35 21.64988 -71.52797 17020 ft 232 kts 124°
2026-04-27 17:36 21.64187 -71.51287 17021 ft 232 kts 124°
2026-04-27 17:36 21.63388 -71.49776 17021 ft 233 kts 124°
2026-04-27 17:36 21.62592 -71.48274 17021 ft 232 kts 124°
2026-04-27 17:36 21.61786 -71.46756 17021 ft 232 kts 124°
2026-04-27 17:37 21.60987 -71.45248 17023 ft 232 kts 124°
2026-04-27 17:37 21.60187 -71.43740 17023 ft 232 kts 124°
2026-04-27 17:37 21.59389 -71.42235 17023 ft 232 kts 124°
2026-04-27 17:37 21.58589 -71.40729 17023 ft 232 kts 124°
2026-04-27 17:38 21.57789 -71.39222 17021 ft 232 kts 124°
2026-04-27 17:38 21.56991 -71.37718 17021 ft 232 kts 124°
2026-04-27 17:38 21.56191 -71.36214 17021 ft 232 kts 124°
2026-04-27 17:38 21.55393 -71.34710 17021 ft 232 kts 124°
2026-04-27 17:39 21.54592 -71.33203 17021 ft 232 kts 124°
2026-04-27 17:39 21.53791 -71.31697 17021 ft 232 kts 124°
2026-04-27 17:39 21.52992 -71.30195 17021 ft 232 kts 124°
2026-04-27 17:39 21.52192 -71.28691 17021 ft 232 kts 124°
2026-04-27 17:40 21.51391 -71.27185 17023 ft 232 kts 124°
2026-04-27 17:40 21.50589 -71.25679 17022 ft 232 kts 124°
2026-04-27 17:40 21.49789 -71.24175 17023 ft 232 kts 124°
2026-04-27 17:40 21.48988 -71.22671 17023 ft 232 kts 124°
2026-04-27 17:41 21.48187 -71.21167 17025 ft 232 kts 124°
2026-04-27 17:41 21.47386 -71.19663 17026 ft 232 kts 124°
2026-04-27 17:41 21.46583 -71.18158 17026 ft 232 kts 124°
2026-04-27 17:41 21.45783 -71.16656 17026 ft 232 kts 124°
2026-04-27 17:42 21.44983 -71.15156 17024 ft 232 kts 124°
2026-04-27 17:42 21.44177 -71.13648 17026 ft 232 kts 125°
2026-04-27 17:42 21.43244 -71.12245 17023 ft 230 kts 132°
2026-04-27 17:42 21.42272 -71.10878 17025 ft 230 kts 131°
2026-04-27 17:43 21.41311 -71.09509 17024 ft 230 kts 131°
2026-04-27 17:43 21.40351 -71.08134 17025 ft 230 kts 131°
2026-04-27 17:43 21.39388 -71.06762 17025 ft 230 kts 131°
2026-04-27 17:43 21.38429 -71.05395 17025 ft 230 kts 131°
2026-04-27 17:44 21.37466 -71.04021 17025 ft 230 kts 131°
2026-04-27 17:44 21.36506 -71.02653 17025 ft 230 kts 131°
2026-04-27 17:44 21.35543 -71.01281 17025 ft 230 kts 131°
2026-04-27 17:44 21.34583 -70.99913 17014 ft 230 kts 131°
2026-04-27 17:45 21.33622 -70.98544 17018 ft 230 kts 132°
2026-04-27 17:45 21.32658 -70.97172 17019 ft 230 kts 131°
2026-04-27 17:45 21.31695 -70.95802 17016 ft 230 kts 132°
2026-04-27 17:45 21.30730 -70.94428 17019 ft 230 kts 131°
2026-04-27 17:46 21.29766 -70.93057 17019 ft 231 kts 131°
2026-04-27 17:46 21.28800 -70.91681 17019 ft 231 kts 131°
2026-04-27 17:46 21.27835 -70.90311 17017 ft 231 kts 131°
2026-04-27 17:46 21.26867 -70.88934 17019 ft 231 kts 132°
2026-04-27 17:47 21.25904 -70.87565 17017 ft 231 kts 132°
2026-04-27 17:47 21.25262 -70.86652 17018 ft 231 kts 132°
2026-04-27 17:47 21.23965 -70.84810 17018 ft 231 kts 132°
2026-04-27 17:47 21.22995 -70.83432 17018 ft 232 kts 132°
2026-04-27 17:48 21.22024 -70.82053 17018 ft 232 kts 132°
2026-04-27 17:48 21.21053 -70.80674 17020 ft 232 kts 132°
2026-04-27 17:48 21.20084 -70.79300 17020 ft 232 kts 132°
2026-04-27 17:48 21.19112 -70.77920 17018 ft 232 kts 132°
2026-04-27 17:49 21.18139 -70.76540 17019 ft 232 kts 132°
2026-04-27 17:49 21.17169 -70.75164 17020 ft 232 kts 132°
2026-04-27 17:49 21.16197 -70.73786 17020 ft 232 kts 132°
2026-04-27 17:49 21.15226 -70.72410 17020 ft 232 kts 132°
2026-04-27 17:50 21.14252 -70.71029 17016 ft 232 kts 132°
2026-04-27 17:50 21.12312 -70.68280 17018 ft 232 kts 132°
2026-04-27 17:50 21.11338 -70.66901 17015 ft 232 kts 132°
2026-04-27 17:51 21.10694 -70.65989 17016 ft 232 kts 132°
2026-04-27 17:51 21.09392 -70.64147 17018 ft 232 kts 132°
2026-04-27 17:51 21.08748 -70.63236 17018 ft 232 kts 132°
2026-04-27 17:51 21.07775 -70.61858 17017 ft 232 kts 132°
2026-04-27 17:52 21.06803 -70.60484 17020 ft 232 kts 132°
2026-04-27 17:52 21.05829 -70.59106 17021 ft 232 kts 132°
2026-04-27 17:52 21.04859 -70.57735 17019 ft 232 kts 132°
2026-04-27 17:52 21.03885 -70.56357 17021 ft 232 kts 132°
2026-04-27 17:53 21.02912 -70.54984 17018 ft 232 kts 132°
2026-04-27 17:53 21.01935 -70.53602 17014 ft 232 kts 132°
2026-04-27 17:53 21.00965 -70.52233 17018 ft 232 kts 132°
2026-04-27 17:53 20.99991 -70.50857 17018 ft 232 kts 132°
2026-04-27 17:54 20.99014 -70.49478 17018 ft 232 kts 132°
2026-04-27 17:54 20.98041 -70.48104 17019 ft 232 kts 132°
2026-04-27 17:54 20.97066 -70.46729 17019 ft 232 kts 132°
2026-04-27 17:54 20.96091 -70.45354 17018 ft 232 kts 132°
2026-04-27 17:55 20.95119 -70.43982 17014 ft 232 kts 132°
2026-04-27 17:55 20.94145 -70.42609 17014 ft 232 kts 132°
2026-04-27 17:55 20.93171 -70.41236 17014 ft 232 kts 132°
2026-04-27 17:55 20.92197 -70.39863 17014 ft 232 kts 132°
2026-04-27 17:56 20.91224 -70.38491 17012 ft 232 kts 132°
2026-04-27 17:56 20.90248 -70.37118 17012 ft 232 kts 132°
2026-04-27 17:56 20.89276 -70.35748 17009 ft 232 kts 132°
2026-04-27 17:56 20.88303 -70.34378 17009 ft 232 kts 132°
2026-04-27 17:57 20.87341 -70.33024 17012 ft 232 kts 132°
2026-04-27 17:57 20.86354 -70.31634 17012 ft 232 kts 132°
2026-04-27 17:57 20.85377 -70.30261 17012 ft 232 kts 132°
2026-04-27 17:57 20.84402 -70.28889 17012 ft 232 kts 132°
2026-04-27 17:58 20.83428 -70.27518 17012 ft 232 kts 132°
2026-04-27 17:58 20.82452 -70.26148 17013 ft 232 kts 132°
2026-04-27 17:58 20.81479 -70.24779 17013 ft 232 kts 132°
2026-04-27 17:58 20.80503 -70.23408 17013 ft 232 kts 132°
2026-04-27 17:59 20.79527 -70.22037 17013 ft 232 kts 132°
2026-04-27 17:59 20.78553 -70.20668 17013 ft 232 kts 132°
2026-04-27 17:59 20.77577 -70.19298 17007 ft 232 kts 132°
2026-04-27 17:59 20.76601 -70.17928 17007 ft 232 kts 132°
2026-04-27 18:00 20.75625 -70.16558 17012 ft 231 kts 132°
2026-04-27 18:00 20.74651 -70.15191 17011 ft 231 kts 132°
2026-04-27 18:00 20.73679 -70.13828 17011 ft 231 kts 132°
2026-04-27 18:00 20.72701 -70.12455 17011 ft 232 kts 132°
2026-04-27 18:01 20.71724 -70.11087 17009 ft 232 kts 132°
2026-04-27 18:01 20.70749 -70.09718 17009 ft 232 kts 132°
2026-04-27 18:01 20.69773 -70.08352 17009 ft 232 kts 132°
2026-04-27 18:01 20.68799 -70.06986 17009 ft 232 kts 132°
2026-04-27 18:02 20.67819 -70.05614 17009 ft 232 kts 132°
2026-04-27 18:02 20.66843 -70.04247 17009 ft 232 kts 132°
2026-04-27 18:02 20.65865 -70.02877 17009 ft 232 kts 132°
2026-04-27 18:02 20.64891 -70.01514 17010 ft 232 kts 132°
2026-04-27 18:03 20.63912 -70.00143 17010 ft 232 kts 132°
2026-04-27 18:03 20.62936 -69.98778 17010 ft 232 kts 132°
2026-04-27 18:03 20.61958 -69.97410 17010 ft 232 kts 132°
2026-04-27 18:03 20.60979 -69.96041 17010 ft 232 kts 132°
2026-04-27 18:04 20.60004 -69.94678 17010 ft 232 kts 132°
2026-04-27 18:04 20.59028 -69.93313 17012 ft 232 kts 132°
2026-04-27 18:04 20.58048 -69.91944 17006 ft 231 kts 132°
2026-04-27 18:04 20.57071 -69.90579 17006 ft 231 kts 132°
2026-04-27 18:05 20.56095 -69.89215 17007 ft 231 kts 132°
2026-04-27 18:05 20.55120 -69.87853 17007 ft 231 kts 132°
2026-04-27 18:05 20.54147 -69.86495 17007 ft 231 kts 132°
2026-04-27 18:05 20.53171 -69.85133 17004 ft 231 kts 133°
2026-04-27 18:06 20.52197 -69.83773 17007 ft 230 kts 133°
2026-04-27 18:06 20.51223 -69.82415 17006 ft 230 kts 133°
2026-04-27 18:06 20.50250 -69.81056 17006 ft 230 kts 133°
2026-04-27 18:06 20.49276 -69.79700 17006 ft 230 kts 133°
2026-04-27 18:07 20.48305 -69.78344 17006 ft 230 kts 133°
2026-04-27 18:07 20.47334 -69.76992 17006 ft 230 kts 133°
2026-04-27 18:07 20.46361 -69.75635 17006 ft 230 kts 133°
2026-04-27 18:07 20.45391 -69.74284 17006 ft 230 kts 133°
2026-04-27 18:08 20.44416 -69.72927 17007 ft 230 kts 133°
2026-04-27 18:08 20.43437 -69.71578 17007 ft 230 kts 133°
2026-04-27 18:08 20.42450 -69.70240 17007 ft 230 kts 133°
2026-04-27 18:08 20.41462 -69.68897 17007 ft 230 kts 133°
2026-04-27 18:09 20.40479 -69.67556 17009 ft 230 kts 133°
2026-04-27 18:09 20.39492 -69.66212 17009 ft 230 kts 133°
2026-04-27 18:09 20.38509 -69.64872 17009 ft 230 kts 133°
2026-04-27 18:09 20.37523 -69.63529 17009 ft 230 kts 133°
2026-04-27 18:10 20.36538 -69.62188 17009 ft 230 kts 133°
2026-04-27 18:10 20.35552 -69.60845 17009 ft 230 kts 133°
2026-04-27 18:10 20.34568 -69.59506 17009 ft 230 kts 133°
2026-04-27 18:10 20.33584 -69.58166 17009 ft 230 kts 133°
2026-04-27 18:11 20.32597 -69.56823 17009 ft 230 kts 133°
2026-04-27 18:11 20.31613 -69.55485 17009 ft 230 kts 133°
2026-04-27 18:11 20.30630 -69.54148 17009 ft 230 kts 133°
2026-04-27 18:11 20.29640 -69.52802 17009 ft 230 kts 133°
2026-04-27 18:12 20.28655 -69.51464 17007 ft 230 kts 134°
2026-04-27 18:12 20.27672 -69.50127 17007 ft 229 kts 134°
2026-04-27 18:12 20.26686 -69.48788 17007 ft 229 kts 134°
2026-04-27 18:12 20.25703 -69.47453 17007 ft 229 kts 134°
2026-04-27 18:13 20.24718 -69.46115 17006 ft 229 kts 134°
2026-04-27 18:13 20.23737 -69.44783 17006 ft 229 kts 134°
2026-04-27 18:13 20.22751 -69.43444 17006 ft 229 kts 134°
2026-04-27 18:13 20.21769 -69.42112 17006 ft 229 kts 134°
2026-04-27 18:14 20.20786 -69.40778 17006 ft 229 kts 134°
2026-04-27 18:14 20.19800 -69.39441 17006 ft 229 kts 134°
2026-04-27 18:14 20.18816 -69.38107 17006 ft 229 kts 134°
2026-04-27 18:14 20.17835 -69.36775 17006 ft 229 kts 134°
2026-04-27 18:15 20.16851 -69.35442 17007 ft 229 kts 134°
2026-04-27 18:15 20.15867 -69.34109 17007 ft 229 kts 134°
2026-04-27 18:15 20.14885 -69.32778 17007 ft 229 kts 134°
2026-04-27 18:15 20.13898 -69.31441 17007 ft 229 kts 134°
2026-04-27 18:16 20.12915 -69.30109 17007 ft 229 kts 134°
2026-04-27 18:16 20.11930 -69.28776 17007 ft 229 kts 134°
2026-04-27 18:16 20.10946 -69.27445 17007 ft 229 kts 134°
2026-04-27 18:16 20.09961 -69.26111 17007 ft 229 kts 134°
2026-04-27 18:17 20.08975 -69.24777 17007 ft 229 kts 134°
2026-04-27 18:17 20.07995 -69.23450 17008 ft 229 kts 134°
2026-04-27 18:17 20.07007 -69.22116 17008 ft 229 kts 134°
2026-04-27 18:17 20.06023 -69.20784 17008 ft 229 kts 134°
2026-04-27 18:18 20.05036 -69.19450 17008 ft 229 kts 134°
2026-04-27 18:18 20.04052 -69.18120 17007 ft 229 kts 134°
2026-04-27 18:18 20.03067 -69.16788 17007 ft 229 kts 134°
2026-04-27 18:18 20.02084 -69.15461 17007 ft 229 kts 134°
2026-04-27 18:19 20.01100 -69.14132 17007 ft 229 kts 134°
2026-04-27 18:19 20.00114 -69.12800 17007 ft 229 kts 134°
2026-04-27 18:19 19.99130 -69.11473 17007 ft 229 kts 134°
2026-04-27 18:19 19.98145 -69.10142 17007 ft 229 kts 134°
2026-04-27 18:20 19.97162 -69.08817 17004 ft 229 kts 134°
2026-04-27 18:20 19.96175 -69.07485 17004 ft 229 kts 134°
2026-04-27 18:20 19.95190 -69.06156 17004 ft 229 kts 134°
2026-04-27 18:20 19.94206 -69.04829 17004 ft 229 kts 134°
2026-04-27 18:21 19.93219 -69.03499 17001 ft 229 kts 134°
2026-04-27 18:21 19.92236 -69.02173 17001 ft 229 kts 134°
2026-04-27 18:21 19.91250 -69.00845 17001 ft 229 kts 134°
2026-04-27 18:21 19.90264 -68.99516 17001 ft 229 kts 134°
2026-04-27 18:22 19.89282 -68.98194 17001 ft 229 kts 134°
2026-04-27 18:22 19.88295 -68.96865 17001 ft 229 kts 134°
2026-04-27 18:22 19.87308 -68.95535 17001 ft 229 kts 134°
2026-04-27 18:22 19.86324 -68.94211 17001 ft 229 kts 134°
2026-04-27 18:23 19.85345 -68.92873 17002 ft 229 kts 134°
2026-04-27 18:23 19.84369 -68.91538 17002 ft 229 kts 134°
2026-04-27 18:23 19.83390 -68.90202 17001 ft 228 kts 134°
2026-04-27 18:23 19.82415 -68.88873 17002 ft 228 kts 134°
2026-04-27 18:24 19.81439 -68.87545 17003 ft 228 kts 134°
2026-04-27 18:24 19.80465 -68.86218 17003 ft 228 kts 134°
2026-04-27 18:24 19.79490 -68.84889 17001 ft 228 kts 134°
2026-04-27 18:24 19.78517 -68.83564 17001 ft 228 kts 134°
2026-04-27 18:25 19.77543 -68.82239 16998 ft 228 kts 134°
2026-04-27 18:25 19.76568 -68.80911 16998 ft 228 kts 134°
2026-04-27 18:25 19.75593 -68.79585 16998 ft 228 kts 134°
2026-04-27 18:25 19.74621 -68.78263 16998 ft 228 kts 134°
2026-04-27 18:26 19.73646 -68.76937 16999 ft 228 kts 134°
2026-04-27 18:26 19.72674 -68.75614 16999 ft 228 kts 134°
2026-04-27 18:26 19.71698 -68.74287 16999 ft 228 kts 134°
2026-04-27 18:26 19.70723 -68.72962 16999 ft 228 kts 134°
2026-04-27 18:27 19.69750 -68.71640 16998 ft 228 kts 134°
2026-04-27 18:27 19.68775 -68.70316 16998 ft 228 kts 134°
2026-04-27 18:27 19.67802 -68.68993 16998 ft 228 kts 134°
2026-04-27 18:27 19.66828 -68.67671 16998 ft 228 kts 134°
2026-04-27 18:28 19.65855 -68.66350 16998 ft 228 kts 134°
2026-04-27 18:28 19.64878 -68.65023 16998 ft 228 kts 134°
2026-04-27 18:28 19.63902 -68.63699 16998 ft 228 kts 134°
2026-04-27 18:28 19.62928 -68.62377 16998 ft 228 kts 134°
2026-04-27 18:29 19.61951 -68.61053 16999 ft 228 kts 134°
2026-04-27 18:29 19.60976 -68.59729 16999 ft 228 kts 134°
2026-04-27 18:29 19.60002 -68.58408 16999 ft 228 kts 134°
2026-04-27 18:29 19.59039 -68.57103 16999 ft 228 kts 134°
2026-04-27 18:30 19.58048 -68.55760 16999 ft 228 kts 134°
2026-04-27 18:30 19.57075 -68.54441 16999 ft 228 kts 134°
2026-04-27 18:30 19.56428 -68.53564 16999 ft 228 kts 134°
2026-04-27 18:30 19.55455 -68.52247 17001 ft 227 kts 135°
2026-04-27 18:31 19.54159 -68.50492 16999 ft 228 kts 135°
2026-04-27 18:31 19.53183 -68.49171 16996 ft 228 kts 135°
2026-04-27 18:31 19.52208 -68.47851 16996 ft 228 kts 135°
2026-04-27 18:31 19.51234 -68.46532 16996 ft 228 kts 135°
2026-04-27 18:32 19.50257 -68.45210 16997 ft 228 kts 135°
2026-04-27 18:32 19.49596 -68.44317 16997 ft 228 kts 135°
2026-04-27 18:32 19.48619 -68.42995 16997 ft 228 kts 135°
2026-04-27 18:32 19.47644 -68.41677 16997 ft 228 kts 135°
2026-04-27 18:33 19.46666 -68.40354 16998 ft 228 kts 135°
2026-04-27 18:33 19.45689 -68.39035 16990 ft 228 kts 134°
2026-04-27 18:33 19.44726 -68.37732 16995 ft 227 kts 134°
2026-04-27 18:33 19.43737 -68.36396 16995 ft 228 kts 134°
2026-04-27 18:34 19.42761 -68.35078 16996 ft 228 kts 134°
2026-04-27 18:34 19.41782 -68.33756 16996 ft 228 kts 134°
2026-04-27 18:34 19.40819 -68.32455 16998 ft 228 kts 134°
2026-04-27 18:34 19.39842 -68.31138 16999 ft 228 kts 134°
2026-04-27 18:35 19.38864 -68.29817 17000 ft 228 kts 134°
2026-04-27 18:35 19.37874 -68.28481 16997 ft 228 kts 134°
2026-04-27 18:35 19.36897 -68.27163 16997 ft 228 kts 134°
2026-04-27 18:35 19.35930 -68.25860 16997 ft 228 kts 134°
2026-04-27 18:36 19.34951 -68.24539 16996 ft 228 kts 134°
2026-04-27 18:36 19.33973 -68.23220 16996 ft 228 kts 134°
2026-04-27 18:36 19.32995 -68.21902 16997 ft 228 kts 134°
2026-04-27 18:36 19.32005 -68.20568 16996 ft 228 kts 134°
2026-04-27 18:37 19.31024 -68.19247 17002 ft 228 kts 134°
2026-04-27 18:37 19.30061 -68.17950 16997 ft 228 kts 134°
2026-04-27 18:37 19.29080 -68.16629 16997 ft 228 kts 134°
2026-04-27 18:37 19.28103 -68.15313 16997 ft 228 kts 134°
2026-04-27 18:38 19.27122 -68.13993 16999 ft 228 kts 134°
2026-04-27 18:38 19.26129 -68.12657 16999 ft 228 kts 134°
2026-04-27 18:38 19.25168 -68.11364 16999 ft 228 kts 134°
2026-04-27 18:38 19.24183 -68.10038 16999 ft 228 kts 134°
2026-04-27 18:39 19.23204 -68.08722 17000 ft 228 kts 134°
2026-04-27 18:39 19.22227 -68.07409 16997 ft 228 kts 134°
2026-04-27 18:39 19.21246 -68.06089 16997 ft 228 kts 134°
2026-04-27 18:39 19.20265 -68.04771 16997 ft 228 kts 134°
2026-04-27 18:40 19.19284 -68.03452 16997 ft 228 kts 134°
2026-04-27 18:40 19.18305 -68.02137 16997 ft 228 kts 134°
2026-04-27 18:40 19.17325 -68.00822 16997 ft 228 kts 134°
2026-04-27 18:40 19.16344 -67.99503 16997 ft 228 kts 134°
2026-04-27 18:41 19.15362 -67.98186 16998 ft 228 kts 134°
2026-04-27 18:41 19.14381 -67.96868 16998 ft 228 kts 134°
2026-04-27 18:41 19.13401 -67.95554 16998 ft 228 kts 134°
2026-04-27 18:41 19.12420 -67.94236 16998 ft 228 kts 134°
2026-04-27 18:42 19.11440 -67.92922 16997 ft 228 kts 134°
2026-04-27 18:42 19.10788 -67.92048 16997 ft 228 kts 134°
2026-04-27 18:42 19.09476 -67.90289 16997 ft 228 kts 134°
2026-04-27 18:42 19.08494 -67.88973 16997 ft 228 kts 134°
2026-04-27 18:43 19.07511 -67.87654 16991 ft 228 kts 134°
2026-04-27 18:43 19.06530 -67.86340 16992 ft 228 kts 134°
2026-04-27 18:43 19.05549 -67.85026 16992 ft 228 kts 134°
2026-04-27 18:43 19.04568 -67.83712 16992 ft 228 kts 134°
2026-04-27 18:44 19.03587 -67.82398 16993 ft 228 kts 134°
2026-04-27 18:44 19.02608 -67.81087 16993 ft 228 kts 134°
2026-04-27 18:44 19.01630 -67.79778 16993 ft 228 kts 134°
2026-04-27 18:44 19.00646 -67.78461 16993 ft 228 kts 134°
2026-04-27 18:45 18.99667 -67.77151 16993 ft 228 kts 134°
2026-04-27 18:45 18.98683 -67.75835 16993 ft 228 kts 134°
2026-04-27 18:45 18.97703 -67.74524 16993 ft 228 kts 134°
2026-04-27 18:45 18.96723 -67.73214 16993 ft 228 kts 134°
2026-04-27 18:46 18.95742 -67.71902 16992 ft 228 kts 134°
2026-04-27 18:46 18.94760 -67.70590 16993 ft 228 kts 134°
2026-04-27 18:46 18.93779 -67.69279 16992 ft 228 kts 134°
2026-04-27 18:46 18.92797 -67.67967 16992 ft 228 kts 134°
2026-04-27 18:47 18.91818 -67.66659 16993 ft 228 kts 134°
2026-04-27 18:47 18.90825 -67.65335 16869 ft 233 kts 134°
2026-04-27 18:47 18.89815 -67.63988 16675 ft 234 kts 134°
2026-04-27 18:47 18.88808 -67.62641 16482 ft 234 kts 134°
2026-04-27 18:48 18.87800 -67.61295 16288 ft 233 kts 134°
2026-04-27 18:48 18.86795 -67.59954 16096 ft 233 kts 134°
2026-04-27 18:48 18.85791 -67.58615 15903 ft 233 kts 134°
2026-04-27 18:48 18.84786 -67.57274 15712 ft 232 kts 134°
2026-04-27 18:49 18.83785 -67.55939 15519 ft 231 kts 134°
2026-04-27 18:49 18.82786 -67.54608 15329 ft 231 kts 134°
2026-04-27 18:49 18.81793 -67.53284 15142 ft 230 kts 134°
2026-04-27 18:49 18.80798 -67.51958 14954 ft 230 kts 134°
2026-04-27 18:50 18.79808 -67.50639 14766 ft 229 kts 134°
2026-04-27 18:50 18.78820 -67.49323 14581 ft 229 kts 134°
2026-04-27 18:50 18.77833 -67.48010 14397 ft 228 kts 134°
2026-04-27 18:50 18.76851 -67.46701 14215 ft 227 kts 134°
2026-04-27 18:51 18.75871 -67.45397 14034 ft 227 kts 134°
2026-04-27 18:51 18.74890 -67.44091 13851 ft 226 kts 134°
2026-04-27 18:51 18.73917 -67.42797 13654 ft 225 kts 133°
2026-04-27 18:51 18.72946 -67.41504 13450 ft 224 kts 133°
2026-04-27 18:52 18.71977 -67.40216 13249 ft 223 kts 133°
2026-04-27 18:52 18.71017 -67.38939 13051 ft 223 kts 133°
2026-04-27 18:52 18.70054 -67.37658 12853 ft 222 kts 133°
2026-04-27 18:53 18.68146 -67.35123 12455 ft 219 kts 133°
2026-04-27 18:53 18.67204 -67.33870 12260 ft 218 kts 133°
2026-04-27 18:53 18.66263 -67.32621 12066 ft 216 kts 133°
2026-04-27 18:53 18.65332 -67.31384 11874 ft 215 kts 133°
2026-04-27 18:54 18.64401 -67.30147 11684 ft 214 kts 132°
2026-04-27 18:54 18.63479 -67.28924 11494 ft 213 kts 132°
2026-04-27 18:54 18.62557 -67.27699 11305 ft 212 kts 132°
2026-04-27 18:54 18.61643 -67.26487 11117 ft 211 kts 132°
2026-04-27 18:55 18.60734 -67.25280 10929 ft 210 kts 132°
2026-04-27 18:55 18.59828 -67.24079 10744 ft 209 kts 132°
2026-04-27 18:55 18.58929 -67.22886 10561 ft 208 kts 132°
2026-04-27 18:55 18.58028 -67.21691 10379 ft 208 kts 131°
2026-04-27 18:56 18.57128 -67.20499 10197 ft 207 kts 131°
2026-04-27 18:56 18.56236 -67.19316 10016 ft 206 kts 131°
2026-04-27 18:56 18.55354 -67.18135 9821 ft 205 kts 128°
2026-04-27 18:56 18.54854 -67.16721 9614 ft 209 kts 103°
2026-04-27 18:57 18.54650 -67.15202 9414 ft 209 kts 101°
2026-04-27 18:57 18.54410 -67.13704 9216 ft 207 kts 103°
2026-04-27 18:57 18.54239 -67.12197 9017 ft 207 kts 98°
2026-04-27 18:57 18.54098 -67.10687 8815 ft 206 kts 99°
2026-04-27 18:58 18.53929 -67.09193 8621 ft 205 kts 101°
2026-04-27 18:58 18.53812 -67.08209 8492 ft 204 kts 101°
2026-04-27 18:58 18.53582 -67.06229 8232 ft 203 kts 99°
2026-04-27 18:58 18.53411 -67.04758 8048 ft 201 kts 100°
2026-04-27 18:59 18.53246 -67.03324 8033 ft 193 kts 99°
2026-04-27 18:59 18.53087 -67.01945 8023 ft 187 kts 100°
2026-04-27 18:59 18.52930 -67.00600 8023 ft 183 kts 101°
2026-04-27 18:59 18.52776 -66.99279 8018 ft 181 kts 101°
2026-04-27 19:00 18.52625 -66.97974 8019 ft 179 kts 100°
2026-04-27 19:00 18.52474 -66.96679 8016 ft 178 kts 100°
2026-04-27 19:00 18.52324 -66.95389 8017 ft 177 kts 101°
2026-04-27 19:00 18.52174 -66.94104 8014 ft 177 kts 101°
2026-04-27 19:01 18.52024 -66.92814 8002 ft 177 kts 101°
2026-04-27 19:01 18.51875 -66.91535 8000 ft 177 kts 101°
2026-04-27 19:01 18.51726 -66.90262 7998 ft 177 kts 100°
2026-04-27 19:01 18.51576 -66.88975 7998 ft 177 kts 100°
2026-04-27 19:02 18.51426 -66.87693 7998 ft 177 kts 100°
2026-04-27 19:02 18.51273 -66.86386 7997 ft 178 kts 101°
2026-04-27 19:02 18.51124 -66.85106 7997 ft 178 kts 100°
2026-04-27 19:02 18.50972 -66.83810 7997 ft 179 kts 100°
2026-04-27 19:03 18.50820 -66.82512 7995 ft 179 kts 100°
2026-04-27 19:03 18.50669 -66.81215 7996 ft 179 kts 100°
2026-04-27 19:03 18.50516 -66.79913 7996 ft 179 kts 101°
2026-04-27 19:03 18.50413 -66.79032 7996 ft 179 kts 100°
2026-04-27 19:04 18.50210 -66.77309 7995 ft 179 kts 101°
2026-04-27 19:04 18.50058 -66.76009 7992 ft 179 kts 100°
2026-04-27 19:04 18.49904 -66.74702 7991 ft 180 kts 101°
2026-04-27 19:04 18.49750 -66.73393 7993 ft 180 kts 101°
2026-04-27 19:05 18.49596 -66.72085 7991 ft 180 kts 101°
2026-04-27 19:05 18.49442 -66.70777 7930 ft 183 kts 101°
2026-04-27 19:05 18.49282 -66.69429 7797 ft 187 kts 100°
2026-04-27 19:05 18.49122 -66.68066 7684 ft 189 kts 99°
2026-04-27 19:06 18.48960 -66.66692 7569 ft 190 kts 99°
2026-04-27 19:06 18.48798 -66.65311 7453 ft 190 kts 100°
2026-04-27 19:06 18.48635 -66.63932 7337 ft 190 kts 100°
2026-04-27 19:06 18.48471 -66.62551 7171 ft 192 kts 100°
2026-04-27 19:07 18.48305 -66.61150 6991 ft 194 kts 99°
2026-04-27 19:07 18.48139 -66.59741 6808 ft 195 kts 99°
2026-04-27 19:07 18.47970 -66.58318 6625 ft 195 kts 100°
2026-04-27 19:07 18.47802 -66.56899 6442 ft 195 kts 99°
2026-04-27 19:08 18.47633 -66.55481 6245 ft 195 kts 99°
2026-04-27 19:08 18.47468 -66.54074 6049 ft 192 kts 99°
2026-04-27 19:08 18.47304 -66.52686 5849 ft 188 kts 99°
2026-04-27 19:08 18.47142 -66.51329 5651 ft 186 kts 100°
2026-04-27 19:09 18.46983 -66.49990 5451 ft 182 kts 101°
2026-04-27 19:09 18.46823 -66.48667 5261 ft 183 kts 100°
2026-04-27 19:09 18.46665 -66.47344 5064 ft 182 kts 100°
2026-04-27 19:09 18.46512 -66.46028 4877 ft 180 kts 100°
2026-04-27 19:10 18.46355 -66.44722 4681 ft 179 kts 100°
2026-04-27 19:10 18.46200 -66.43420 4486 ft 178 kts 100°
2026-04-27 19:10 18.46047 -66.42131 4287 ft 177 kts 99°
2026-04-27 19:10 18.45944 -66.41283 4162 ft 177 kts 99°
2026-04-27 19:11 18.45739 -66.39555 3899 ft 178 kts 98°
2026-04-27 19:11 18.45586 -66.38266 3708 ft 177 kts 98°
2026-04-27 19:11 18.45432 -66.36987 3521 ft 176 kts 98°
2026-04-27 19:11 18.45278 -66.35696 3339 ft 179 kts 97°
2026-04-27 19:12 18.45125 -66.34390 3141 ft 179 kts 98°
2026-04-27 19:12 18.44968 -66.33095 2946 ft 177 kts 97°
2026-04-27 19:12 18.44813 -66.31821 2755 ft 174 kts 97°
2026-04-27 19:12 18.44662 -66.30558 2561 ft 173 kts 96°
2026-04-27 19:13 18.44515 -66.29315 2362 ft 169 kts 97°
2026-04-27 19:13 18.44365 -66.28072 2193 ft 173 kts 95°
2026-04-27 19:13 18.44264 -66.27225 2068 ft 180 kts 95°
2026-04-27 19:13 18.44098 -66.25894 1885 ft 185 kts 95°
2026-04-27 19:14 18.43943 -66.24544 1695 ft 185 kts 97°
2026-04-27 19:14 18.43786 -66.23214 1503 ft 180 kts 99°
2026-04-27 19:14 18.43621 -66.21973 1486 ft 163 kts 104°
2026-04-27 19:14 18.43460 -66.20836 1488 ft 154 kts 95°
2026-04-27 19:15 18.43421 -66.19723 1491 ft 150 kts 93°
2026-04-27 19:15 18.43398 -66.18616 1493 ft 153 kts 93°
2026-04-27 19:15 18.43391 -66.17491 1496 ft 155 kts 93°
2026-04-27 19:15 18.43393 -66.16353 1500 ft 155 kts 92°
2026-04-27 19:16 18.43391 -66.15230 1498 ft 151 kts 92°
2026-04-27 19:16 18.43389 -66.14506 1497 ft 148 kts 92°
2026-04-27 19:16 18.43385 -66.13049 1496 ft 148 kts 92°
2026-04-27 19:16 18.43383 -66.11969 1502 ft 150 kts 91°
2026-04-27 19:17 18.43382 -66.10871 1495 ft 149 kts 94°
2026-04-27 19:17 18.43375 -66.09777 1500 ft 151 kts 92°
2026-04-27 19:17 18.43374 -66.08649 1368 ft 158 kts 91°
2026-04-27 19:17 18.43370 -66.07507 1166 ft 152 kts 91°
2026-04-27 19:18 18.43366 -66.06422 984 ft 144 kts 90°
2026-04-27 19:18 18.43363 -66.05387 791 ft 137 kts 92°
2026-04-27 19:18 18.43359 -66.04391 613 ft 137 kts 89°
2026-04-27 19:18 18.43366 -66.03437 435 ft 120 kts 88°
2026-04-27 19:19 18.43366 -66.02599 293 ft 110 kts 90°
2026-04-27 19:19 18.43369 -66.01816 138 ft 104 kts 94°
2026-04-27 19:19 18.43362 -66.01125 19 ft 81 kts 92°
2026-04-27 19:19 18.43357 -66.00631 12 ft 54 kts 91°
2026-04-27 19:20 18.43376 -66.00292 11 ft 42 kts 73°
2026-04-27 19:20 18.43463 -66.00123 13 ft 19 kts 81°
2026-04-27 19:20 18.43466 -65.99988 13 ft 19 kts 93°
2026-04-27 19:20 18.43544 -65.99930 13 ft 23 kts 324°
2026-04-27 19:21 18.43721 -65.99986 13 ft 30 kts 341°
2026-04-27 19:21 18.43918 -66.00021 13 ft 29 kts 67°
2026-04-27 19:21 18.43968 -66.00021 13 ft 0 kts 212°
2026-04-27 19:21 18.43939 -66.00027 13 ft 0 kts 150°